Regional Weather Roundup
Issued by NWS

Home | Current Version | Previous Version | Text Only | Print | Product List | Glossary Off
Versions: 1 2 3 4 5 6 7 8 9 10 11 12 13 14 15 16 17 18 19 20 21 22 23 24 25 26 27 28 29 30 31 32 33 34 35 36 37 38 39 40 41 42 43 44 45 46 47 48 49 50

000
ASUS43 KDTX 251410
RWRMI
MICHIGAN HOURLY REGIONAL WEATHER ROUNDUP
NATIONAL WEATHER SERVICE DETROIT/PONTIAC MI
ISSUED BY NATIONAL WEATHER SERVICE GRAND RAPIDS MI
900 AM EST SAT FEB 25 2017

NOTE: "FAIR" INDICATES FEW OR NO CLOUDS BELOW 12,000 FEET WITH NO
SIGNIFICANT WEATHER AND/OR OBSTRUCTION TO VISIBILITY.

MIZ047>049-052>055-059>063-066>070-074>076-081>083-251500-
SOUTHEAST LOWER MICHIGAN

CITY           SKY/WX    TMP DP  RH WIND       PRES   REMARKS
ADRIAN         LGT SNOW  33  30  88 NW18G26   29.61R FOG     WCI  22
ALMA           CLOUDY    31  25  78 W13G21    29.55R WCI  22
ANN ARBOR      CLOUDY    34  30  85 W17       29.56R WCI  23
BAD AXE        PTSUNNY   34  28  79 SW25G39   29.46S WCI  21
DETROIT CITY   CLOUDY    40  34  79 W13       29.53R WCI  32
DETROIT        FLURRIES  37  34  89 W15       29.56R WCI  28
FLINT          CLOUDY    33  27  78 W10G25    29.54R WCI  25
GROSSE ILE     PTSUNNY   40  33  77 W23G30    29.55R WCI  29
HILLSDALE      CLOUDY    32  25  74 W17G28    29.58R WCI  21
HOWELL         CLOUDY    32  28  86 W15       29.55R WCI  22

CITY           SKY/WX    TMP DP  RH WIND       PRES   REMARKS
JACKSON        CLOUDY    32  24  72 W14       29.58R WCI  22
LANSING        PTSUNNY   30  21  69 W21G31    29.58R WCI  17
MASON          CLOUDY    32  27  83 W14G25    29.57R WCI  22
MONROE         LGT RAIN  37  34  88 W15G22    29.57R WCI  28
MT. CLEMENS    PTSUNNY   41  35  80 SW15      29.50R
PONTIAC        FLURRIES  34  31  88 W17       29.52R WCI  23
PORT HOPE        N/A     35  27  72 SW10G25   29.41S WCI  27
PORT HURON     CLOUDY    37  32  81 SW5       29.50S WCI  34
TRI CITIES     MOSUNNY   32  25  75 SW22G32   29.51R WCI  19
YPSILANTI      CLOUDY    38  33  82 W18G25    29.56R WCI  28
$$
MIZ043>046-050>051-056>058-064>065-071>073-077>080-251500-
SOUTHWEST LOWER MICHIGAN

CITY           SKY/WX    TMP DP  RH WIND       PRES   REMARKS
BATTLE CREEK   LGT SNOW  29  24  82 W20G29    29.62R WCI  16
BENTON HARBOR  FLURRIES  27  18  69 W20G28    29.70R WCI  13
BIG RAPIDS     LGT SNOW  27  23  86 W13G20    29.53R WCI  16
COLDWATER      CLOUDY    31  25  78 W14G23    29.62R WCI  21
HOLLAND        LGT SNOW  27  20  75 W13       29.65R WCI  16
GRAND RAPIDS   LGT SNOW  28  21  75 W22G30    29.60R WCI  14
KALAMAZOO      LGT SNOW  29  22  75 W16G24    29.63R VSB 1   WCI  17
MARSHALL       FLURRIES  31  27  88 W15G21    29.60R WCI  20
MOUNT PLEASANT CLOUDY    30  25  81 SW20      29.51R WCI  18
MUSKEGON       LGT SNOW  27  22  81 W15G25    29.63R WCI  15
STURGIS        LGT SNOW  29  26  91 W10G20    29.64R VSB 3/4 WCI  19
$$
MIZ016>042-251500-
NORTHERN LOWER MICHIGAN

CITY           SKY/WX    TMP DP  RH WIND       PRES   REMARKS
ALPENA         LGT SNOW  30  29  96 VRB7      29.40R FOG     WCI  23
BEAVER ISLAND  LGT SNOW  24  22  93 W9        29.46S VSB 1   WCI  14
BELLAIRE       LGT SNOW  26  24  90 NW10      29.49R WCI  16
CADILLAC       LGT SNOW  26  22  83 NW13G22   29.47R WCI  15
CHARLEVOIX     LGT SNOW  25  23  91 W14G20    29.49R WCI  14
GAYLORD        LGT SNOW  25  20  81 W10G20    29.41R VSB 1   WCI  15
HOUGHTON LAKE  LGT SNOW  27  24  89 W15       29.45R FOG     WCI  15
MANISTEE       LGT SNOW  25  21  86 NW15G23   29.58R VSB 1   WCI  12
OSCODA         CLOUDY    36  32  87 SW20G25   29.40R WCI  25
PELLSTON       LGT SNOW  24  20  84 W12       29.42S VSB 3/4 WCI  13
TRAVERSE CITY  LGT SNOW  26  23  88 W13       29.50R FOG     WCI  15
LUDINGTON      LGT SNOW  24  21  89 NW14G22   29.60R WCI  12
$$
MIZ007>008-015-251500-
EASTERN UPPER MICHIGAN

CITY           SKY/WX    TMP DP  RH WIND       PRES   REMARKS
KINROSS        LGT SNOW  21  19  92 W7        29.38R FOG     WCI  12
MACKINAC ISLAN LGT SNOW  23  23 100 W10       29.40S WCI  12
NEWBERRY       SNOW      20  19  95 W9        29.41R VSB 1/4 WCI  10
S. S. MARIE    LGT SNOW  21  18  88 NW6       29.37R FOG     WCI  13
$$
MIZ004>006-011>014-085-251500-
CENTRAL UPPER MICHIGAN

CITY           SKY/WX    TMP DP  RH WIND       PRES   REMARKS
MANISTIQUE     LGT SNOW  21  19  94 NW15      29.48R WCI   7
ESCANABA       LGT SNOW  19  15  84 W15       29.56R FOG     WCI   5
MENOMINEE      LGT SNOW  19  15  84 W8        29.64R VSB 1   WCI   9
SAWYER-GWINN   LGT SNOW  16  12  86 NW15      29.52R WCI   1
$$
MIZ001>003-009>011-084-251500-
WESTERN UPPER MICHIGAN

CITY           SKY/WX    TMP DP  RH WIND       PRES   REMARKS
IRON MOUNTAIN  SNOW      17  10  74 NW14G21   29.57R VSB 1/2 WCI   3
HOUGHTON       HAZE      17  12  80 NW23G30   29.59R VSB 3/4 WCI  -1
COPPER HARBOR    N/A     21  17  84 NE31G41   29.58R WCI   2
IRONWOOD       LGT SNOW  16  12  86 NW18G25   29.71R FOG     WCI  -1
$$

ABBREVIATIONS USED IN REMARKS
   TC - TEMPERATURE IN CELSIUS
  WCI - WIND CHILL INDEX
   HX - HEAT INDEX
  VSB - VISIBILITY





USA.gov is the U.S. government's official web portal to all federal, state and local government web resources and services.